| time (UTC) | temp F | wind direction | speed MPH | gust MPH | rain 1hr in | rain 24hr in | rain mn in | humidity % | barometer mb |
| 20260831114708 | 65 | 283 | 1.0 | 4.0 | 0.00 | 0.04 | 0.00 | 50 | 1020.6 |
| 20260831114208 | 65 | 284 | 1.0 | 4.0 | 0.00 | 0.04 | 0.00 | 51 | 1020.6 |
| 20260831113707 | 66 | 285 | 1.0 | 3.0 | 0.00 | 0.04 | 0.00 | 49 | 1020.6 |
| 20260831113206 | 65 | 271 | 1.0 | 3.0 | 0.00 | 0.04 | 0.00 | 49 | 1020.6 |
| 20260831112709 | 64 | 282 | 2.0 | 4.0 | 0.00 | 0.04 | 0.00 | 51 | 1020.6 |
| 20260831112208 | 65 | 288 | 2.0 | 4.0 | 0.00 | 0.04 | 0.00 | 51 | 1020.6 |
| 20260831111707 | 64 | 275 | 2.0 | 4.0 | 0.00 | 0.04 | 0.00 | 51 | 1020.6 |
| 20260831111206 | 65 | 293 | 2.0 | 5.0 | 0.00 | 0.04 | 0.00 | 50 | 1020.6 |
| 20260831110707 | 66 | 290 | 2.0 | 5.0 | 0.00 | 0.04 | 0.00 | 49 | 1020.6 |
| 20260831110208 | 66 | 290 | 2.0 | 5.0 | 0.00 | 0.04 | 0.00 | 47 | 1020.6 |
| 20260831105706 | 67 | 278 | 1.0 | 3.0 | 0.00 | 0.04 | 0.00 | 47 | 1020.6 |
| 20260831105206 | 67 | 276 | 1.0 | 3.0 | 0.00 | 0.04 | 0.00 | 46 | 1020.6 |
| 20260831104708 | 66 | 277 | 1.0 | 3.0 | 0.00 | 0.04 | 0.00 | 47 | 1020.6 |
| 20260831104207 | 65 | 281 | 0.0 | 2.0 | 0.00 | 0.04 | 0.00 | 49 | 1020.6 |
| 20260831103706 | 66 | 262 | 0.0 | 1.0 | 0.00 | 0.04 | 0.00 | 49 | 1020.6 |
| 20260831103206 | 65 | 262 | 0.0 | 0.0 | 0.00 | 0.04 | 0.00 | 49 | 1020.6 |
| 20260831102709 | 65 | 262 | 0.0 | 0.0 | 0.00 | 0.04 | 0.00 | 49 | 1020.6 |
| 20260831102207 | 65 | 262 | 0.0 | 0.0 | 0.00 | 0.04 | 0.00 | 50 | 1020.6 |
| 20260831101707 | 65 | 262 | 0.0 | 0.0 | 0.00 | 0.04 | 0.00 | 51 | 1020.6 |
| 20260831101208 | 65 | 262 | 0.0 | 0.0 | 0.00 | 0.04 | 0.00 | 51 | 1020.6 |
| 20260831100707 | 65 | 262 | 0.0 | 0.0 | 0.00 | 0.04 | 0.00 | 50 | 1020.6 |
| 20260831100206 | 66 | 307 | 0.0 | 0.0 | 0.00 | 0.04 | 0.00 | 48 | 1020.6 |
| 20260831095706 | 66 | 307 | 0.0 | 0.0 | 0.00 | 0.04 | 0.00 | 48 | 1020.6 |
| 20260831095202 | 66 | 307 | 0.0 | 0.0 | 0.00 | 0.04 | 0.00 | 48 | 1020.6 |
| 20260831094936 | 65 | 308 | 0.0 | 0.0 | 0.00 | 0.04 | 0.00 | 49 | 1020.6 |
| 20260831094202 | 65 | 307 | 0.0 | 0.0 | 0.00 | 0.04 | 0.00 | 50 | 1020.6 |
| 20260831093703 | 64 | 308 | 0.0 | 0.0 | 0.00 | 0.04 | 0.00 | 52 | 1020.6 |
| 20260831093203 | 65 | 337 | 0.0 | 1.0 | 0.00 | 0.04 | 0.00 | 51 | 1020.6 |
| 20260831092704 | 64 | 287 | 1.0 | 3.0 | 0.00 | 0.04 | 0.00 | 52 | 1020.6 |
| 20260831092202 | 65 | 287 | 1.0 | 3.0 | 0.00 | 0.04 | 0.00 | 51 | 1020.6 |
| 20260831091702 | 65 | 282 | 0.0 | 3.0 | 0.00 | 0.04 | 0.00 | 51 | 1020.6 |
| 20260831091203 | 64 | 285 | 0.0 | 3.0 | 0.00 | 0.04 | 0.00 | 53 | 1020.6 |
| 20260831090705 | 64 | 296 | 1.0 | 4.0 | 0.00 | 0.04 | 0.00 | 55 | 1020.6 |
| 20260831090203 | 64 | 282 | 2.0 | 4.0 | 0.00 | 0.04 | 0.00 | 56 | 1020.6 |
| 20260831085703 | 64 | 286 | 2.0 | 4.0 | 0.00 | 0.04 | 0.00 | 58 | 1020.6 |
| 20260831085200 | 64 | 291 | 1.0 | 4.0 | 0.00 | 0.04 | 0.00 | 60 | 1020.6 |
| 20260831084701 | 63 | 283 | 1.0 | 4.0 | 0.00 | 0.04 | 0.00 | 62 | 1020.6 |
| 20260831084201 | 63 | 289 | 0.0 | 1.0 | 0.00 | 0.04 | 0.00 | 63 | 1020.6 |
| 20260831083933 | 63 | 287 | 1.0 | 3.0 | 0.00 | 0.04 | 0.00 | 63 | 1020.6 |
| 20260831083201 | 64 | 300 | 1.0 | 3.0 | 0.00 | 0.04 | 0.00 | 61 | 1020.6 |
| 20260831082701 | 64 | 297 | 1.0 | 3.0 | 0.00 | 0.04 | 0.00 | 61 | 1020.6 |
| 20260831082201 | 64 | 283 | 0.0 | 2.0 | 0.00 | 0.04 | 0.00 | 61 | 1020.6 |
| 20260831081702 | 64 | 334 | 0.0 | 0.0 | 0.00 | 0.04 | 0.00 | 62 | 1020.6 |
| 20260831081433 | 64 | 343 | 0.0 | 0.0 | 0.00 | 0.04 | 0.00 | 63 | 1020.6 |
| 20260831080701 | 64 | 343 | 0.0 | 0.0 | 0.00 | 0.04 | 0.00 | 64 | 1020.6 |
| 20260831080201 | 64 | 343 | 0.0 | 0.0 | 0.00 | 0.04 | 0.00 | 65 | 1020.6 |
| 20260831075702 | 64 | 343 | 0.0 | 0.0 | 0.00 | 0.04 | 0.00 | 66 | 1020.6 |
| 20260831075202 | 63 | 343 | 0.0 | 0.0 | 0.00 | 0.04 | 0.00 | 66 | 1020.6 |
| 20260831074659 | 63 | 343 | 0.0 | 0.0 | 0.00 | 0.04 | 0.00 | 67 | 1020.6 |
| 20260831074159 | 64 | 30 | 0.0 | 0.0 | 0.00 | 0.04 | 0.00 | 65 | 1020.6 |
| 20260831073700 | 64 | 30 | 0.0 | 0.0 | 0.00 | 0.04 | 0.00 | 64 | 1020.6 |
| 20260831073159 | 64 | 30 | 0.0 | 0.0 | 0.00 | 0.04 | 0.00 | 63 | 1020.6 |
| 20260831072659 | 64 | 52 | 0.0 | 0.0 | 0.00 | 0.04 | 0.00 | 62 | 1020.6 |
| 20260831072158 | 64 | 51 | 0.0 | 0.0 | 0.00 | 0.04 | 0.00 | 61 | 1020.6 |
| 20260831071700 | 65 | 51 | 0.0 | 1.0 | 0.00 | 0.04 | 0.00 | 59 | 1020.6 |
| 20260831071430 | 65 | 51 | 0.0 | 1.0 | 0.00 | 0.04 | 0.00 | 57 | 1020.6 |
| 20260831070658 | 66 | 90 | 0.0 | 0.0 | 0.00 | 0.04 | 0.00 | 54 | 1020.6 |
| 20260831070159 | 65 | 90 | 0.0 | 0.0 | 0.00 | 0.04 | 0.00 | 53 | 1020.6 |
| 20260831065658 | 65 | 90 | 0.0 | 0.0 | 0.00 | 0.04 | 0.00 | 56 | 1020.6 |
| 20260831065156 | 65 | 90 | 0.0 | 3.0 | 0.00 | 0.04 | 0.00 | 57 | 1020.6 |
| 20260831064659 | 66 | 90 | 0.0 | 3.0 | 0.00 | 0.04 | 0.00 | 55 | 1020.6 |
| 20260831064158 | 67 | 17 | 0.0 | 3.0 | 0.00 | 0.04 | 0.00 | 48 | 1020.6 |
| 20260831063658 | 69 | 82 | 1.0 | 6.0 | 0.00 | 0.04 | 0.00 | 46 | 1020.6 |
| 20260831063156 | 70 | 112 | 1.0 | 6.0 | 0.00 | 0.04 | 0.00 | 43 | 1020.6 |
| 20260831062656 | 71 | 79 | 1.0 | 6.0 | 0.00 | 0.04 | 0.00 | 39 | 1020.6 |
| 20260831062156 | 71 | 85 | 1.0 | 5.0 | 0.00 | 0.04 | 0.00 | 41 | 1020.6 |
| 20260831061659 | 71 | 267 | 1.0 | 5.0 | 0.00 | 0.04 | 0.00 | 41 | 1020.6 |
| 20260831061155 | 70 | 273 | 2.0 | 5.0 | 0.00 | 0.04 | 0.00 | 41 | 1020.6 |
| 20260831060654 | 70 | 327 | 2.0 | 9.0 | 0.00 | 0.04 | 0.00 | 43 | 1020.6 |
| 20260831060154 | 70 | 262 | 2.0 | 9.0 | 0.00 | 0.04 | 0.00 | 43 | 1020.6 |
| 20260831055655 | 70 | 271 | 2.0 | 7.0 | 0.00 | 0.04 | 0.04 | 43 | 1020.6 |
| 20260831055426 | 70 | 285 | 3.0 | 7.0 | 0.00 | 0.04 | 0.04 | 44 | 1020.6 |
| 20260831054655 | 69 | 250 | 4.0 | 10.0 | 0.00 | 0.04 | 0.04 | 44 | 1020.6 |
| 20260831054427 | 68 | 213 | 5.0 | 10.0 | 0.00 | 0.04 | 0.04 | 48 | 1020.6 |
| 20260831053653 | 68 | 295 | 4.0 | 10.0 | 0.00 | 0.04 | 0.04 | 50 | 1020.6 |
| 20260831053425 | 68 | 258 | 3.0 | 9.0 | 0.00 | 0.04 | 0.04 | 50 | 1020.6 |
| 20260831052655 | 69 | 297 | 3.0 | 8.0 | 0.00 | 0.04 | 0.04 | 50 | 1020.6 |
| 20260831052423 | 69 | 283 | 3.0 | 6.0 | 0.00 | 0.04 | 0.04 | 49 | 1020.6 |
| 20260831051654 | 69 | 278 | 4.0 | 8.0 | 0.00 | 0.04 | 0.04 | 48 | 1020.6 |
| 20260831051152 | 70 | 288 | 5.0 | 11.0 | 0.00 | 0.04 | 0.04 | 47 | 1020.6 |
| 20260831050653 | 70 | 280 | 6.0 | 12.0 | 0.00 | 0.04 | 0.04 | 47 | 1020.6 |
| 20260831050152 | 70 | 302 | 7.0 | 12.0 | 0.00 | 0.04 | 0.04 | 47 | 1020.6 |
| 20260831045927 | 70 | 290 | 5.0 | 11.0 | 0.00 | 0.04 | 0.04 | 47 | 1020.6 |
| 20260831045704 | 70 | 290 | 5.0 | 11.0 | 0.00 | 0.04 | 0.04 | 47 | 1020.6 |
| 20260831045151 | 70 | 298 | 3.0 | 9.0 | 0.00 | 0.04 | 0.04 | 47 | 1020.6 |
| 20260831044650 | 69 | 281 | 2.0 | 7.0 | 0.00 | 0.04 | 0.04 | 47 | 1020.6 |
| 20260831044421 | 69 | 264 | 2.0 | 7.0 | 0.00 | 0.04 | 0.04 | 51 | 1020.6 |
| 20260831043650 | 67 | 297 | 2.0 | 5.0 | 0.00 | 0.04 | 0.04 | 55 | 1020.6 |
| 20260831043149 | 67 | 281 | 3.0 | 5.0 | 0.00 | 0.04 | 0.04 | 58 | 1020.6 |
| 20260831042649 | 67 | 302 | 1.0 | 5.0 | 0.00 | 0.04 | 0.04 | 64 | 1020.6 |
| 20260831042149 | 67 | 290 | 0.0 | 3.0 | 0.00 | 0.04 | 0.04 | 63 | 1020.6 |
| 20260831041649 | 67 | 271 | 0.0 | 0.0 | 0.00 | 0.04 | 0.04 | 63 | 1020.6 |
| 20260831041418 | 67 | 271 | 0.0 | 0.0 | 0.00 | 0.04 | 0.04 | 64 | 1020.6 |
| 20260831040650 | 67 | 271 | 0.0 | 0.0 | 0.00 | 0.04 | 0.04 | 65 | 1020.6 |
| 20260831040147 | 67 | 275 | 0.0 | 0.0 | 0.00 | 0.04 | 0.04 | 65 | 1020.6 |
| 20260831035649 | 67 | 275 | 0.0 | 0.0 | 0.00 | 0.04 | 0.04 | 65 | 1020.6 |
| 20260831035148 | 67 | 275 | 0.0 | 0.0 | 0.00 | 0.04 | 0.04 | 65 | 1020.6 |
| 20260831034649 | 66 | 276 | 0.0 | 0.0 | 0.00 | 0.04 | 0.04 | 66 | 1020.6 |
| 20260831034148 | 66 | 276 | 0.0 | 0.0 | 0.00 | 0.04 | 0.04 | 67 | 1020.6 |
| 20260831033648 | 66 | 276 | 0.0 | 0.0 | 0.00 | 0.04 | 0.04 | 67 | 1020.6 |
| 20260831033149 | 66 | 276 | 0.0 | 0.0 | 0.00 | 0.04 | 0.04 | 67 | 1020.6 |
| 20260831032651 | 66 | 276 | 0.0 | 0.0 | 0.00 | 0.04 | 0.04 | 67 | 1020.6 |
| 20260831032149 | 65 | 276 | 0.0 | 0.0 | 0.00 | 0.04 | 0.04 | 69 | 1020.6 |
| 20260831031649 | 65 | 277 | 0.0 | 0.0 | 0.00 | 0.04 | 0.04 | 71 | 1020.6 |
| 20260831031149 | 65 | 276 | 0.0 | 0.0 | 0.00 | 0.04 | 0.04 | 70 | 1020.6 |
| 20260831030650 | 64 | 277 | 0.0 | 0.0 | 0.00 | 0.04 | 0.04 | 70 | 1020.6 |
| 20260831030148 | 64 | 287 | 0.0 | 0.0 | 0.00 | 0.04 | 0.04 | 70 | 1020.6 |
| 20260831025649 | 64 | 258 | 0.0 | 0.0 | 0.00 | 0.04 | 0.04 | 71 | 1020.6 |
| 20260831025148 | 64 | 258 | 0.0 | 0.0 | 0.00 | 0.04 | 0.04 | 70 | 1020.6 |
| 20260831024650 | 64 | 258 | 0.0 | 0.0 | 0.00 | 0.04 | 0.04 | 71 | 1020.6 |
| 20260831024147 | 64 | 258 | 0.0 | 0.0 | 0.00 | 0.04 | 0.04 | 72 | 1020.6 |
| 20260831023647 | 64 | 229 | 0.0 | 0.0 | 0.00 | 0.04 | 0.04 | 73 | 1020.6 |
| 20260831023149 | 64 | 229 | 0.0 | 0.0 | 0.00 | 0.04 | 0.04 | 73 | 1020.6 |
| 20260831022649 | 65 | 229 | 0.0 | 0.0 | 0.00 | 0.04 | 0.04 | 72 | 1020.6 |
| 20260831022148 | 65 | 229 | 0.0 | 0.0 | 0.00 | 0.04 | 0.04 | 72 | 1020.6 |
| 20260831021647 | 65 | 229 | 0.0 | 0.0 | 0.00 | 0.04 | 0.04 | 70 | 1020.6 |
| 20260831021149 | 65 | 229 | 0.0 | 0.0 | 0.00 | 0.04 | 0.04 | 69 | 1020.6 |
| 20260831020650 | 65 | 229 | 0.0 | 0.0 | 0.00 | 0.04 | 0.04 | 68 | 1020.6 |
| 20260831020147 | 65 | 229 | 0.0 | 0.0 | 0.00 | 0.04 | 0.04 | 68 | 1020.6 |
| 20260831015648 | 66 | 229 | 0.0 | 0.0 | 0.00 | 0.04 | 0.04 | 67 | 1020.6 |
| 20260831015148 | 66 | 229 | 0.0 | 0.0 | 0.00 | 0.04 | 0.04 | 67 | 1020.6 |
| 20260831014648 | 66 | 229 | 0.0 | 0.0 | 0.00 | 0.04 | 0.04 | 65 | 1020.6 |
| 20260831014418 | 67 | 229 | 0.0 | 0.0 | 0.00 | 0.04 | 0.04 | 65 | 1020.6 |
| 20260831013919 | 67 | 229 | 0.0 | 0.0 | 0.00 | 0.04 | 0.04 | 64 | 1020.6 |
| 20260831013149 | 67 | 271 | 0.0 | 0.0 | 0.00 | 0.04 | 0.04 | 63 | 1020.6 |
| 20260831012918 | 67 | 221 | 0.0 | 0.0 | 0.00 | 0.04 | 0.04 | 63 | 1020.6 |
| 20260831012148 | 68 | 221 | 0.0 | 0.0 | 0.00 | 0.04 | 0.04 | 63 | 1020.6 |
| 20260831011647 | 68 | 201 | 0.0 | 0.0 | 0.00 | 0.04 | 0.04 | 62 | 1020.6 |
| 20260831011146 | 68 | 202 | 0.0 | 0.0 | 0.00 | 0.04 | 0.04 | 61 | 1020.6 |
| 20260831010646 | 68 | 304 | 0.0 | 0.0 | 0.00 | 0.04 | 0.04 | 61 | 1020.6 |
| 20260831010147 | 69 | 120 | 0.0 | 0.0 | 0.00 | 0.04 | 0.04 | 60 | 1020.6 |
| 20260831005651 | 69 | 94 | 0.0 | 0.0 | 0.00 | 0.04 | 0.04 | 58 | 1020.6 |
| 20260831005647 | 69 | 292 | 0.0 | 0.0 | 0.00 | 0.04 | 0.04 | 59 | 1020.6 |
| 20260831004914 | 69 | 94 | 0.0 | 0.0 | 0.00 | 0.04 | 0.04 | 58 | 1020.6 |
| 20260831004144 | 69 | 94 | 0.0 | 0.0 | 0.00 | 0.04 | 0.04 | 57 | 1020.6 |
| 20260831003646 | 69 | 94 | 0.0 | 1.0 | 0.00 | 0.04 | 0.04 | 57 | 1020.6 |
| 20260831003144 | 70 | 94 | 0.0 | 1.0 | 0.00 | 0.04 | 0.04 | 56 | 1020.6 |
| 20260831002641 | 71 | 89 | 0.0 | 1.0 | 0.00 | 0.04 | 0.04 | 55 | 1020.6 |
| 20260831002143 | 71 | 124 | 0.0 | 3.0 | 0.00 | 0.04 | 0.04 | 55 | 1020.6 |
| 20260831001643 | 71 | 115 | 0.0 | 3.0 | 0.00 | 0.04 | 0.04 | 54 | 1020.6 |
| 20260831001141 | 71 | 30 | 0.0 | 3.0 | 0.00 | 0.04 | 0.04 | 53 | 1020.6 |
| 20260831000642 | 71 | 103 | 1.0 | 5.0 | 0.00 | 0.04 | 0.04 | 54 | 1020.6 |
| 20260831000140 | 71 | 116 | 1.0 | 5.0 | 0.00 | 0.04 | 0.04 | 53 | 1020.6 |
| 20260830235641 | 71 | 91 | 1.0 | 3.0 | 0.00 | 0.04 | 0.04 | 52 | 1020.6 |
| 20260830235141 | 71 | 81 | 1.0 | 2.0 | 0.00 | 0.04 | 0.04 | 55 | 1020.6 |
| 20260830234911 | 71 | 47 | 0.0 | 3.0 | 0.00 | 0.04 | 0.04 | 54 | 1020.6 |
| 20260830234410 | 72 | 92 | 0.0 | 3.0 | 0.00 | 0.04 | 0.04 | 51 | 1020.6 |
| 20260830233639 | 73 | 103 | 0.0 | 5.0 | 0.00 | 0.04 | 0.04 | 50 | 1020.6 |
| 20260830233140 | 75 | 118 | 0.0 | 3.0 | 0.00 | 0.04 | 0.04 | 47 | 1020.6 |
| 20260830233135 | 74 | 268 | 1.0 | 5.0 | 0.00 | 0.04 | 0.04 | 48 | 1020.6 |
| 20260830232136 | 75 | 91 | 0.0 | 3.0 | 0.00 | 0.04 | 0.04 | 45 | 1020.6 |
| 20260830231635 | 75 | 138 | 1.0 | 5.0 | 0.00 | 0.04 | 0.04 | 45 | 1020.6 |
| 20260830231140 | 75 | 79 | 4.0 | 7.0 | 0.00 | 0.04 | 0.04 | 47 | 1020.6 |
| 20260830231135 | 75 | 115 | 3.0 | 7.0 | 0.00 | 0.04 | 0.04 | 48 | 1020.6 |
| 20260830230134 | 76 | 79 | 3.0 | 7.0 | 0.00 | 0.04 | 0.04 | 47 | 1020.6 |
| 20260830225907 | 75 | 88 | 1.0 | 6.0 | 0.00 | 0.04 | 0.04 | 46 | 1020.6 |
| 20260830225131 | 74 | 83 | 0.0 | 4.0 | 0.00 | 0.04 | 0.04 | 47 | 1020.6 |
| 20260830224631 | 74 | 111 | 0.0 | 3.0 | 0.00 | 0.04 | 0.04 | 45 | 1020.6 |
| 20260830224132 | 75 | 86 | 0.0 | 3.0 | 0.00 | 0.04 | 0.04 | 42 | 1020.6 |
| 20260830223904 | 75 | 91 | 0.0 | 4.0 | 0.00 | 0.04 | 0.04 | 43 | 1020.6 |
| 20260830223132 | 75 | 115 | 0.0 | 4.0 | 0.00 | 0.04 | 0.04 | 43 | 1020.6 |
| 20260830222631 | 75 | 83 | 0.0 | 3.0 | 0.00 | 0.04 | 0.04 | 42 | 1020.6 |
| 20260830222133 | 74 | 91 | 0.0 | 3.0 | 0.00 | 0.04 | 0.04 | 42 | 1020.6 |
| 20260830221632 | 73 | 96 | 0.0 | 1.0 | 0.00 | 0.04 | 0.04 | 43 | 1020.6 |
| 20260830221131 | 72 | 221 | 0.0 | 2.0 | 0.00 | 0.04 | 0.04 | 46 | 1020.6 |
| 20260830220630 | 71 | 292 | 0.0 | 2.0 | 0.00 | 0.04 | 0.04 | 46 | 1020.6 |
| 20260830220132 | 71 | 101 | 0.0 | 1.0 | 0.00 | 0.04 | 0.04 | 47 | 1020.6 |
| 20260830215629 | 71 | 254 | 0.0 | 4.0 | 0.00 | 0.04 | 0.04 | 47 | 1020.6 |
| 20260830215402 | 70 | 272 | 1.0 | 5.0 | 0.00 | 0.04 | 0.04 | 47 | 1020.6 |
| 20260830214632 | 70 | 257 | 5.0 | 18.0 | 0.00 | 0.05 | 0.04 | 49 | 1020.6 |
| 20260830214129 | 69 | 261 | 9.0 | 19.0 | 0.00 | 0.05 | 0.04 | 50 | 1020.6 |
| 20260830213630 | 68 | 295 | 10.0 | 19.0 | 0.01 | 0.06 | 0.04 | 53 | 1020.6 |
| 20260830213130 | 67 | 306 | 12.0 | 27.0 | 0.02 | 0.06 | 0.04 | 54 | 1020.6 |
| 20260830212632 | 67 | 278 | 14.0 | 27.0 | 0.03 | 0.06 | 0.04 | 55 | 1020.6 |
| 20260830212130 | 66 | 309 | 14.0 | 25.0 | 0.04 | 0.06 | 0.04 | 56 | 1020.6 |
| 20260830211629 | 66 | 304 | 15.0 | 28.0 | 0.04 | 0.06 | 0.04 | 57 | 1020.6 |
| 20260830211129 | 67 | 284 | 17.0 | 32.0 | 0.04 | 0.06 | 0.04 | 55 | 1020.6 |
| 20260830210631 | 67 | 282 | 14.0 | 32.0 | 0.04 | 0.06 | 0.04 | 55 | 1020.6 |
| 20260830210130 | 67 | 311 | 10.0 | 31.0 | 0.04 | 0.06 | 0.04 | 54 | 1020.6 |
| 20260830205628 | 66 | 295 | 10.0 | 17.0 | 0.04 | 0.06 | 0.04 | 58 | 1020.6 |
| 20260830205129 | 65 | 281 | 13.0 | 21.0 | 0.04 | 0.06 | 0.04 | 61 | 1020.6 |
| 20260830204638 | 63 | 302 | 13.0 | 21.0 | 0.04 | 0.06 | 0.04 | 66 | 1020.6 |
| 20260830204632 | 64 | 295 | 14.0 | 21.0 | 0.04 | 0.06 | 0.04 | 64 | 1020.6 |
| 20260830203630 | 62 | 285 | 14.0 | 26.0 | 0.03 | 0.05 | 0.03 | 68 | 1020.6 |
| 20260830203128 | 62 | 279 | 17.0 | 29.0 | 0.02 | 0.04 | 0.02 | 67 | 1020.6 |
| 20260830202859 | 64 | 290 | 19.0 | 36.0 | 0.01 | 0.03 | 0.01 | 62 | 1020.6 |
| 20260830202127 | 69 | 282 | 18.0 | 36.0 | 0.00 | 0.02 | 0.00 | 49 | 1020.6 |
| 20260830201629 | 71 | 311 | 13.0 | 29.0 | 0.00 | 0.02 | 0.00 | 43 | 1020.6 |
| 20260830201128 | 74 | 286 | 9.0 | 16.0 | 0.00 | 0.02 | 0.00 | 57 | 1020.6 |
| 20260830200627 | 75 | 300 | 9.0 | 14.0 | 0.00 | 0.02 | 0.00 | 50 | 1020.6 |
| 20260830200127 | 75 | 293 | 8.0 | 12.0 | 0.00 | 0.02 | 0.00 | 47 | 1020.6 |
| 20260830195630 | 76 | 305 | 8.0 | 12.0 | 0.00 | 0.02 | 0.00 | 46 | 1020.6 |
| 20260830195127 | 77 | 313 | 8.0 | 11.0 | 0.00 | 0.02 | 0.00 | 47 | 1020.6 |
| 20260830194628 | 77 | 262 | 9.0 | 17.0 | 0.00 | 0.02 | 0.00 | 43 | 1020.6 |
| 20260830194126 | 77 | 311 | 7.0 | 17.0 | 0.00 | 0.02 | 0.00 | 44 | 1020.6 |
| 20260830193628 | 79 | 293 | 1.0 | 16.0 | 0.00 | 0.02 | 0.00 | 39 | 1020.6 |
| 20260830193125 | 80 | 304 | 1.0 | 4.0 | 0.00 | 0.02 | 0.00 | 38 | 1020.6 |
| 20260830192625 | 80 | 96 | 2.0 | 6.0 | 0.00 | 0.02 | 0.00 | 39 | 1020.6 |
| 20260830192358 | 80 | 86 | 2.0 | 8.0 | 0.00 | 0.02 | 0.00 | 39 | 1020.6 |
| 20260830191856 | 80 | 101 | 2.0 | 8.0 | 0.00 | 0.02 | 0.00 | 38 | 1020.6 |
| 20260830191124 | 81 | 84 | 2.0 | 5.0 | 0.00 | 0.02 | 0.00 | 38 | 1020.6 |
| 20260830190626 | 80 | 94 | 2.0 | 7.0 | 0.00 | 0.02 | 0.00 | 38 | 1020.6 |
| 20260830190123 | 80 | 109 | 1.0 | 7.0 | 0.00 | 0.02 | 0.00 | 39 | 1020.6 |
| 20260830185624 | 80 | 125 | 3.0 | 7.0 | 0.00 | 0.02 | 0.00 | 39 | 1020.6 |
| 20260830185123 | 79 | 294 | 3.0 | 7.0 | 0.00 | 0.02 | 0.00 | 39 | 1020.6 |
| 20260830184624 | 80 | 100 | 2.0 | 7.0 | 0.00 | 0.02 | 0.00 | 38 | 1020.6 |
| 20260830184355 | 80 | 116 | 1.0 | 6.0 | 0.00 | 0.02 | 0.00 | 38 | 1020.6 |
| 20260830183854 | 80 | 236 | 3.0 | 8.0 | 0.00 | 0.02 | 0.00 | 38 | 1020.6 |
| 20260830183354 | 80 | 89 | 3.0 | 9.0 | 0.00 | 0.02 | 0.00 | 37 | 1020.6 |
| 20260830182851 | 80 | 215 | 3.0 | 9.0 | 0.00 | 0.02 | 0.00 | 38 | 1020.6 |
| 20260830182124 | 80 | 224 | 3.0 | 8.0 | 0.00 | 0.02 | 0.00 | 39 | 1020.6 |
| 20260830181622 | 80 | 77 | 4.0 | 13.0 | 0.00 | 0.02 | 0.00 | 39 | 1020.6 |
| 20260830181353 | 80 | 75 | 3.0 | 13.0 | 0.00 | 0.02 | 0.00 | 39 | 1020.6 |
| 20260830180623 | 80 | 93 | 3.0 | 7.0 | 0.00 | 0.02 | 0.00 | 40 | 1020.6 |
| 20260830180122 | 79 | 70 | 4.0 | 8.0 | 0.00 | 0.02 | 0.00 | 41 | 1020.6 |
| 20260830175621 | 79 | 113 | 2.0 | 8.0 | 0.00 | 0.02 | 0.00 | 40 | 1020.6 |
| 20260830175121 | 79 | 112 | 1.0 | 5.0 | 0.00 | 0.02 | 0.00 | 40 | 1020.6 |
| 20260830174621 | 79 | 253 | 3.0 | 8.0 | 0.00 | 0.02 | 0.00 | 39 | 1020.6 |
| 20260830174353 | 79 | 102 | 3.0 | 8.0 | 0.00 | 0.02 | 0.00 | 40 | 1020.6 |
| 20260830173620 | 80 | 156 | 1.0 | 8.0 | 0.00 | 0.02 | 0.00 | 39 | 1020.6 |
| 20260830173121 | 80 | 251 | 2.0 | 6.0 | 0.00 | 0.02 | 0.00 | 38 | 1020.6 |
| 20260830172853 | 80 | 100 | 3.0 | 6.0 | 0.00 | 0.02 | 0.00 | 38 | 1020.6 |
| 20260830172120 | 80 | 122 | 2.0 | 8.0 | 0.00 | 0.02 | 0.00 | 39 | 1020.6 |
| 20260830171622 | 80 | 88 | 2.0 | 8.0 | 0.00 | 0.02 | 0.00 | 38 | 1020.6 |
| 20260830171352 | 79 | 72 | 2.0 | 8.0 | 0.00 | 0.02 | 0.00 | 41 | 1020.6 |
| 20260830170621 | 79 | 114 | 2.0 | 7.0 | 0.00 | 0.02 | 0.00 | 40 | 1020.6 |
| 20260830170121 | 78 | 147 | 1.0 | 6.0 | 0.00 | 0.02 | 0.00 | 41 | 1020.6 |
| 20260830165620 | 78 | 119 | 1.0 | 6.0 | 0.00 | 0.02 | 0.00 | 39 | 1020.6 |
| 20260830165122 | 78 | 136 | 2.0 | 7.0 | 0.00 | 0.02 | 0.00 | 41 | 1020.6 |
| 20260830164619 | 78 | 111 | 1.0 | 7.0 | 0.00 | 0.02 | 0.00 | 41 | 1020.6 |
| 20260830164120 | 79 | 119 | 1.0 | 4.0 | 0.00 | 0.02 | 0.00 | 41 | 1020.6 |
| 20260830163620 | 78 | 219 | 1.0 | 4.0 | 0.00 | 0.02 | 0.00 | 40 | 1020.6 |
| 20260830163350 | 78 | 191 | 1.0 | 4.0 | 0.00 | 0.02 | 0.00 | 40 | 1020.6 |
| 20260830162618 | 77 | 108 | 1.0 | 2.0 | 0.00 | 0.02 | 0.00 | 41 | 1020.6 |
| 20260830162119 | 77 | 100 | 1.0 | 5.0 | 0.00 | 0.02 | 0.00 | 42 | 1020.6 |
| 20260830161624 | 77 | 251 | 1.0 | 5.0 | 0.00 | 0.02 | 0.00 | 42 | 1020.6 |
| 20260830161620 | 77 | 94 | 0.0 | 5.0 | 0.00 | 0.02 | 0.00 | 40 | 1020.6 |
| 20260830160849 | 77 | 115 | 1.0 | 5.0 | 0.00 | 0.02 | 0.00 | 41 | 1020.6 |
| 20260830160119 | 77 | 250 | 0.0 | 3.0 | 0.00 | 0.02 | 0.00 | 40 | 1020.6 |
| 20260830155620 | 76 | 230 | 0.0 | 2.0 | 0.00 | 0.02 | 0.00 | 42 | 1020.6 |
| 20260830155120 | 76 | 100 | 0.0 | 2.0 | 0.00 | 0.02 | 0.00 | 41 | 1020.6 |
| 20260830154619 | 76 | 256 | 1.0 | 4.0 | 0.00 | 0.02 | 0.00 | 42 | 1020.6 |
| 20260830154120 | 75 | 307 | 4.0 | 9.0 | 0.00 | 0.02 | 0.00 | 41 | 1020.6 |
| 20260830153618 | 75 | 315 | 5.0 | 9.0 | 0.00 | 0.02 | 0.00 | 42 | 1020.6 |
| 20260830153353 | 74 | 303 | 5.0 | 8.0 | 0.00 | 0.02 | 0.00 | 44 | 1020.6 |
| 20260830152619 | 74 | 304 | 4.0 | 8.0 | 0.00 | 0.02 | 0.00 | 45 | 1020.6 |
| 20260830152350 | 73 | 303 | 3.0 | 6.0 | 0.00 | 0.02 | 0.00 | 45 | 1020.6 |
| 20260830151618 | 73 | 4 | 3.0 | 7.0 | 0.00 | 0.02 | 0.00 | 46 | 1020.6 |
| 20260830151119 | 72 | 338 | 4.0 | 7.0 | 0.00 | 0.02 | 0.00 | 47 | 1020.6 |
| 20260830150618 | 71 | 1 | 4.0 | 6.0 | 0.00 | 0.02 | 0.00 | 48 | 1020.6 |
| 20260830150118 | 71 | 300 | 4.0 | 6.0 | 0.00 | 0.02 | 0.00 | 49 | 1020.6 |
| 20260830145853 | 70 | 285 | 2.0 | 6.0 | 0.00 | 0.02 | 0.00 | 50 | 1020.6 |
| 20260830145119 | 70 | 293 | 1.0 | 5.0 | 0.00 | 0.02 | 0.00 | 50 | 1020.6 |
| 20260830144618 | 69 | 304 | 0.0 | 0.0 | 0.00 | 0.02 | 0.00 | 49 | 1020.6 |
| 20260830144120 | 69 | 304 | 0.0 | 0.0 | 0.00 | 0.02 | 0.00 | 49 | 1020.6 |
| 20260830143618 | 69 | 304 | 0.0 | 2.0 | 0.00 | 0.02 | 0.00 | 50 | 1020.6 |
| 20260830143119 | 69 | 304 | 0.0 | 3.0 | 0.00 | 0.02 | 0.00 | 50 | 1020.6 |
| 20260830142619 | 68 | 84 | 0.0 | 3.0 | 0.00 | 0.02 | 0.00 | 53 | 1020.6 |
| 20260830142121 | 68 | 274 | 1.0 | 4.0 | 0.00 | 0.02 | 0.00 | 52 | 1020.6 |
| 20260830141620 | 68 | 276 | 2.0 | 4.0 | 0.00 | 0.02 | 0.00 | 52 | 1020.6 |
| 20260830141120 | 68 | 291 | 2.0 | 4.0 | 0.00 | 0.02 | 0.00 | 52 | 1020.6 |
| 20260830140618 | 68 | 280 | 2.0 | 4.0 | 0.00 | 0.02 | 0.00 | 52 | 1020.6 |
| 20260830140121 | 67 | 302 | 2.0 | 5.0 | 0.00 | 0.02 | 0.00 | 54 | 1020.6 |
| 20260830135618 | 67 | 293 | 1.0 | 5.0 | 0.00 | 0.02 | 0.00 | 53 | 1020.6 |
| 20260830135119 | 67 | 278 | 1.0 | 2.0 | 0.00 | 0.02 | 0.00 | 52 | 1020.6 |
| 20260830134618 | 67 | 271 | 0.0 | 2.0 | 0.00 | 0.02 | 0.00 | 53 | 1020.6 |
| 20260830134121 | 66 | 330 | 0.0 | 0.0 | 0.00 | 0.02 | 0.00 | 55 | 1020.6 |
| 20260830133618 | 66 | 329 | 1.0 | 3.0 | 0.00 | 0.02 | 0.00 | 55 | 1020.6 |
| 20260830133120 | 66 | 292 | 2.0 | 3.0 | 0.00 | 0.02 | 0.00 | 58 | 1020.6 |
| 20260830132620 | 64 | 278 | 1.0 | 3.0 | 0.00 | 0.02 | 0.00 | 58 | 1020.6 |
| 20260830132118 | 64 | 280 | 1.0 | 3.0 | 0.00 | 0.02 | 0.00 | 59 | 1020.6 |
| 20260830131849 | 63 | 287 | 2.0 | 5.0 | 0.00 | 0.02 | 0.00 | 60 | 1020.6 |
| 20260830131119 | 63 | 307 | 2.0 | 5.0 | 0.00 | 0.02 | 0.00 | 59 | 1020.6 |
| 20260830130618 | 63 | 306 | 1.0 | 5.0 | 0.00 | 0.02 | 0.00 | 60 | 1020.6 |
| 20260830130120 | 64 | 300 | 2.0 | 5.0 | 0.00 | 0.02 | 0.00 | 58 | 1020.6 |
| 20260830125621 | 64 | 319 | 3.0 | 5.0 | 0.00 | 0.02 | 0.00 | 58 | 1020.6 |
| 20260830125119 | 63 | 309 | 3.0 | 5.0 | 0.00 | 0.02 | 0.00 | 59 | 1020.6 |
| 20260830124852 | 64 | 298 | 3.0 | 6.0 | 0.00 | 0.02 | 0.00 | 57 | 1020.6 |
| 20260830124118 | 64 | 297 | 3.0 | 6.0 | 0.00 | 0.02 | 0.00 | 57 | 1020.6 |
| 20260830123620 | 64 | 262 | 3.0 | 6.0 | 0.00 | 0.02 | 0.00 | 57 | 1020.6 |
| 20260830123116 | 64 | 291 | 2.0 | 4.0 | 0.00 | 0.02 | 0.00 | 57 | 1020.6 |
| 20260830122615 | 64 | 281 | 2.0 | 4.0 | 0.00 | 0.02 | 0.00 | 57 | 1020.6 |
| 20260830122115 | 63 | 283 | 2.0 | 4.0 | 0.00 | 0.02 | 0.00 | 57 | 1020.6 |
| 20260830121617 | 63 | 287 | 2.0 | 4.0 | 0.00 | 0.02 | 0.00 | 58 | 1020.6 |
| 20260830121114 | 64 | 294 | 3.0 | 5.0 | 0.00 | 0.02 | 0.00 | 57 | 1020.6 |
| 20260830120613 | 63 | 281 | 3.0 | 6.0 | 0.00 | 0.02 | 0.00 | 57 | 1020.6 |
| 20260830120112 | 64 | 301 | 2.0 | 6.0 | 0.00 | 0.02 | 0.00 | 56 | 1020.6 |
| 20260830115615 | 65 | 299 | 2.0 | 4.0 | 0.00 | 0.02 | 0.00 | 55 | 1020.6 |
| 20260830115112 | 65 | 290 | 2.0 | 4.0 | 0.00 | 0.02 | 0.00 | 55 | 1020.6 |